Regional Weather Roundup
Issued by NWS

Home | Current Version | Previous Version | Text Only | Print | Product List | Glossary Off
Versions: 1 2 3 4 5 6 7 8 9 10 11 12 13 14 15 16 17 18 19 20 21 22 23 24 25 26 27 28 29 30 31 32 33 34 35 36 37 38 39 40 41 42 43 44 45 46 47 48 49 50

952
ASUS43 KLMK 210502
RWRKY
KENTUCKY REGIONAL WEATHER ROUNDUP
NATIONAL WEATHER SERVICE LOUISVILLE KY
1200 AM EST TUE FEB 21 2017

NOTE "FAIR" INDICATES FEW OR NO CLOUDS BELOW 12,000 FEET
WITH NO SIGNIFICANT WEATHER AND/OR OBSTRUCTIONS TO VISIBILITY.

KYZ001>023-026-027-061>063-070>075-210600-
WESTERN AND SOUTH CENTRAL KENTUCKY

CITY           SKY/WX    TMP DP  RH WIND       PRES   REMARKS
PADUCAH        CLOUDY    60  48  64 SE6       29.95F
HENDERSON      CLOUDY    59  46  63 SE3       29.97F
OWENSBORO      CLOUDY    55  48  77 E5        30.00S
HOPKINSVILLE   CLOUDY    63  47  55 SE6       29.99F
BOWLING GREEN  MOCLDY    62  43  49 S8        30.02F
GLASGOW        NOT AVBL
$$

KYZ024-025-028>034-038-045-046-053-210600-
NORTH CENTRAL KENTUCKY

CITY           SKY/WX    TMP DP  RH WIND       PRES   REMARKS
LOUISVILLE/SDF CLOUDY    60  41  49 SE3       30.02F
LOUISVILLE/LOU PTCLDY    60  43  53 CALM      30.02F
FORT KNOX      PTCLDY    57  43  57 E3        30.01F
$$

KYZ035>037-039>044-047>052-055>060-089>105-210600-
NORTHEAST KENTUCKY

CITY           SKY/WX    TMP DP  RH WIND       PRES   REMARKS
LEXINGTON      CLOUDY    58  41  53 SE8       30.06F
COVINGTON      CLOUDY    55  40  56 SE10      30.04F
FRANKFORT      CLOUDY    56  43  61 SE6       30.03F
$$

KYZ054-064>069-076>088-106>120-210600-
SOUTHEAST KENTUCKY

CITY           SKY/WX    TMP DP  RH WIND       PRES   REMARKS
JACKSON        CLOUDY    58  37  45 E3        30.09F
LONDON         CLOUDY    52  40  63 CALM      30.09F
SOMERSET       CLOUDY    54  41  62 CALM      30.09F
MIDDLESBORO    PTCLDY    46  43  91 CALM      30.12F
MONTICELLO     PTCLDY    50  43  77 N8        30.10S
$$





USA.gov is the U.S. government's official web portal to all federal, state and local government web resources and services.